Des Moines, IA

7:28 PM CST on December 05, 2016 (GMT -0600)
Des Moines International

Weather History for KDSM - November, 2014

Change the Weather History Date:

Monday, November 24, 2014

  Actual Average Record
Temperature  
Mean Temperature 31 °F 35 °F  
Max Temperature 36 °F 43 °F 67 °F (2011)
Min Temperature 25 °F 26 °F 1 °F (1950)
Degree Days  
Heating Degree Days 34 30  
Month to date heating degree days 718 580  
Since 1 July heating degree days 1100 1064  
Cooling Degree Days 0 0  
Month to date cooling degree days 0 0  
Year to date cooling degree days 1075 1066  
Moisture  
Dew Point 18 °F    
Average Humidity 67    
Maximum Humidity 75    
Minimum Humidity 58    
Precipitation  
Precipitation T in 0.06 in 0.91 in (2009)
Month to date precipitation 0.33 1.81  
Year to date precipitation 40.71 34.22  
Snow  
Snow T in 0.20 in 2.50 in (1975)
Month to date snowfall 2.8 1.5  
Since 1 July snowfall 2.8 1.9  
Since 1 September snowfall 2.8 1.9  
Snow Depth 0.00 in    
Sea Level Pressure  
Sea Level Pressure 29.71 in    
Wind  
Wind Speed 23 mph (NW)    
Max Wind Speed 32 mph    
Max Gust Speed 42 mph    
Visibility 10 miles    
Events Snow    
T = Trace of Precipitation, MM = Missing Value Source: NWS Daily Summary

Daily Weather History Graph

Daily Weather History Graph

Search for Another Location

Airport or City:

Trip Planner

Search our weather history database for the weather conditions in past years. The results will help you decide how hot, cold, wet, or windy it might be!

Date:

Astronomy

Nov. 24, 2014 Rise Set
Actual Time 7:14 AM CST 4:48 PM CST
Civil Twilight 6:43 AM CST 5:18 PM CST
Nautical Twilight 6:09 AM CST 5:52 PM CST
Astronomical Twilight 5:36 AM CST 6:25 PM CST
Moon 9:07 AM CST (11/24) 7:10 PM CST (11/24)
Length of Visible Light 10h 35m
Length of Day
9h 34m
Waxing Crescent, 6% of the Moon is Illuminated
Nov 24
Waxing Crescent
Nov 29
First Quarter
Dec 6
Full
Dec 14
Last Quarter
Dec 21
New

Hourly Weather History & Observations

Time (CST) Temp. Windchill Dew Point Humidity Pressure Visibility Wind Dir Wind Speed Gust Speed Precip Events Conditions
12:54 AM 34.0 °F 21.3 °F 27.0 °F 75% 29.39 in 10.0 mi NW 25.3 mph 34.5 mph N/A   Overcast
1:54 AM 33.1 °F 20.3 °F 26.1 °F 75% 29.39 in 10.0 mi NW 24.2 mph 32.2 mph N/A   Overcast
2:54 AM 33.1 °F 19.6 °F 26.1 °F 75% 29.41 in 10.0 mi NW 27.6 mph 34.5 mph N/A   Overcast
3:54 AM 30.9 °F 16.7 °F 23.0 °F 72% 29.43 in 10.0 mi NNW 27.6 mph 38.0 mph N/A   Overcast
4:54 AM 30.0 °F 17.5 °F 21.9 °F 72% 29.45 in 10.0 mi NW 19.6 mph 31.1 mph N/A   Overcast
5:54 AM 28.9 °F 15.1 °F 21.9 °F 75% 29.47 in 10.0 mi WNW 23.0 mph 32.2 mph N/A   Overcast
6:54 AM 28.0 °F 12.8 °F 19.9 °F 72% 29.49 in 10.0 mi NW 27.6 mph 36.8 mph N/A   Overcast
7:54 AM 26.1 °F 11.6 °F 17.1 °F 69% 29.54 in 10.0 mi NW 21.9 mph 34.5 mph N/A   Overcast
8:54 AM 26.1 °F 11.6 °F 17.1 °F 69% 29.57 in 10.0 mi WNW 21.9 mph 36.8 mph N/A   Overcast
9:54 AM 27.0 °F 12.5 °F 17.1 °F 66% 29.60 in 10.0 mi NW 23.0 mph 34.5 mph N/A   Overcast
10:54 AM 27.0 °F 12.5 °F 17.1 °F 66% 29.63 in 10.0 mi NW 23.0 mph 33.4 mph 0.00 in Snow Light Snow
11:54 AM 27.0 °F 11.9 °F 16.0 °F 63% 29.65 in 6.0 mi WNW 25.3 mph 36.8 mph 0.00 in Snow Light Snow
12:54 PM 27.0 °F 11.3 °F 17.1 °F 66% 29.68 in 9.0 mi NW 27.6 mph 38.0 mph 0.00 in Snow Light Snow
1:54 PM 28.4 °F 13.8 °F 17.6 °F 64% 29.68 in 9.0 mi NW 25.3 mph 32.2 mph N/A Snow Light Snow
2:54 PM 28.0 °F 14.3 °F 17.1 °F 63% 29.75 in 9.0 mi NW 21.9 mph 28.8 mph 0.00 in Snow Light Snow
3:54 PM 28.0 °F 13.3 °F 17.1 °F 63% 29.79 in 10.0 mi WNW 25.3 mph 31.1 mph 0.00 in   Overcast
4:54 PM 28.0 °F 14.6 °F 18.0 °F 66% 29.83 in 10.0 mi WNW 20.7 mph 32.2 mph N/A   Overcast
5:54 PM 28.0 °F 14.3 °F 17.1 °F 63% 29.86 in 10.0 mi WNW 21.9 mph 29.9 mph N/A   Overcast
6:13 PM 28.0 °F 13.0 °F 16.0 °F 61% 29.84 in 10.0 mi NW 26.5 mph 33.4 mph N/A   Overcast
6:54 PM 28.0 °F 14.6 °F 16.0 °F 61% 29.91 in 10.0 mi NW 20.7 mph 32.2 mph 0.00 in Snow Light Snow
7:54 PM 28.0 °F 13.6 °F 16.0 °F 61% 29.93 in 9.0 mi NW 24.2 mph 31.1 mph 0.00 in Snow Light Snow
8:10 PM 28.0 °F 13.6 °F 16.0 °F 61% 29.90 in 9.0 mi NNW 24.2 mph 31.1 mph 0.00 in Snow Light Snow
8:54 PM 26.1 °F 10.1 °F 15.1 °F 63% 29.97 in 9.0 mi NW 27.6 mph 34.5 mph 0.00 in Snow Light Snow
9:54 PM 26.1 °F 12.7 °F 16.0 °F 66% 29.99 in 10.0 mi NW 18.4 mph 25.3 mph 0.00 in   Overcast
10:54 PM 27.0 °F 13.9 °F 15.1 °F 61% 30.01 in 10.0 mi NW 18.4 mph 32.2 mph N/A   Overcast
11:54 PM 25.0 °F 10.6 °F 15.1 °F 66% 30.04 in 10.0 mi NW 20.7 mph 32.2 mph N/A   Mostly Cloudy